Snowfall_Accumulation
0.0 0.0 0.0 0.0 0.0 0.0 0.0 0.0 0.0 0.0 0.0 0.0 0.0 0.0 0.0 0.0 0.0 0.0 0.0 0.0 0.0 0.0 0.0 0.0 0.0 0.0 0.0 0.0 0.0 0.0 0.0 0.0 0.0 0.0 0.0 0.0 0.0 0.0 0.0 0.0 0.0 0.0 0.0
0.0 0.0 0.0 0.0 0.0 0.0 0.0 0.0 0.0 0.0 0.0 0.0 0.0 0.0 0.0 0.0 0.0 0.0 0.0 0.0 0.0 0.0 0.0 0.0 0.0 0.0 0.0 0.0 0.0 0.0 0.0 0.0 0.0 0.0 0.0 0.0 0.0 0.0 0.0 0.0 0.0 0.0 0.0
0.0 0.0 0.0 0.0 0.0 0.0 0.0 0.0 0.0 0.0 0.0 0.0 0.0 0.0 0.0 0.0 0.0 0.0 0.0 0.0 0.0 0.0 0.0 0.0 0.0 0.0 0.0 0.0 0.0 0.0 0.0 0.0 0.0 0.0 0.0 0.0 0.0 0.0 0.0 0.0 0.0 0.0 0.0
0.0 0.0 0.0 0.0 0.0 0.0 0.0 0.0 0.0 0.0 0.0 0.0 0.0 0.0 0.0 0.0 0.0 0.0 0.0 0.0 0.0 0.0 0.0 0.0 0.0 0.0 0.0 0.0 0.0 0.0 0.0 0.0 0.0 0.0 0.0 0.0 0.0 0.0 0.0 0.0 0.0 0.0 0.0
0.0 0.0 0.0 0.0 0.0 0.0 0.0 0.0 0.0 0.0 0.0 0.0 0.0 0.0 0.0 0.0 0.0 0.0 0.0 0.0 0.0 0.0 0.0 0.0 0.0 nan nan nan 0.0 0.0 0.1 0.1 0.1 0.0 0.0 0.0 0.0 0.0 0.0 0.0 0.0 0.0 0.0
0.0 0.0 0.0 0.0 0.0 0.0 0.0 0.0 0.0 0.0 0.0 0.0 0.0 0.0 0.0 0.0 nan nan 0.0 0.0 0.0 0.0 0.0 0.0 0.0 0.0 0.0 nan nan nan nan 0.1 0.1 0.1 0.0 0.0 0.0 0.0 0.0 0.0 0.0 0.0 0.1
0.0 0.0 0.0 0.0 0.0 0.0 0.0 0.0 0.0 0.0 0.0 0.0 0.0 0.0 0.0 0.0 nan nan nan 0.0 0.0 0.0 0.0 0.0 0.0 0.0 nan 0.0 nan nan nan nan 0.0 0.1 0.2 0.0 0.0 0.0 0.0 0.0 0.0 0.0 0.0
0.0 0.0 0.0 0.0 0.0 0.0 0.0 0.0 0.0 0.1 0.0 0.0 0.0 0.0 0.0 0.0 nan nan nan 0.0 0.1 0.0 0.0 0.0 0.0 0.0 0.0 0.0 0.1 0.3 0.0 0.0 0.0 0.0 0.2 0.1 0.0 0.0 0.0 0.0 0.1 0.1 0.3
0.0 0.0 0.0 0.0 0.0 0.0 0.0 0.0 0.0 0.0 0.0 0.0 0.0 0.0 0.0 0.0 nan nan 0.2 0.3 0.2 0.1 0.0 0.0 0.0 0.0 nan nan 0.4 0.8 0.2 0.0 nan nan nan nan nan nan nan 1.0 2.1 2.4 4.7
0.0 0.0 0.0 0.0 0.0 0.0 0.0 0.0 0.0 0.0 0.0 0.0 0.0 0.0 nan 0.3 nan nan nan 1.8 2.9 1.6 0.3 0.1 nan 0.0 nan nan 1.5 1.3 1.5 0.1 0.0 0.0 0.0 0.0 nan nan nan 0.0 0.4 2.1 1.7
0.0 0.0 0.0 0.0 0.0 0.0 0.0 0.0 0.0 0.0 0.0 0.4 0.9 0.4 0.2 0.2 0.2 nan nan 2.5 2.6 2.4 1.4 1.2 0.8 nan nan nan nan 1.6 1.3 0.2 0.2 0.6 0.1 0.1 0.0 0.0 0.0 0.0 0.1 0.6 1.5
0.0 0.0 0.0 0.0 0.0 0.0 0.0 0.0 0.0 0.0 0.2 0.6 5.9 2.1 1.5 1.0 nan nan nan nan nan 5.2 1.8 1.4 2.1 nan nan nan 1.0 nan nan 0.6 4.7 4.1 3.2 2.0 1.8 1.5 0.3 0.4 0.4 0.6 0.4
0.0 0.0 0.0 0.0 0.0 0.0 0.0 0.0 0.0 0.0 0.9 1.4 1.6 3.2 1.5 1.7 1.3 nan nan nan nan 4.6 3.7 3.2 nan nan nan 1.3 nan nan 0.5 4.5 5.3 5.7 3.2 1.8 1.4 0.5 0.3 0.7 0.2 0.1 0.1
0.0 0.0 0.0 0.0 0.0 0.0 0.0 0.0 0.0 0.9 1.7 1.7 2.4 1.9 1.6 1.7 2.5 1.8 2.7 2.6 nan 2.8 0.9 3.0 0.9 2.4 0.9 1.5 2.4 2.9 3.5 4.3 4.4 4.2 2.7 1.5 1.2 1.8 2.1 1.5 2.5 2.3 3.0
0.0 0.0 0.0 0.2 0.0 0.0 0.0 0.0 0.7 0.4 1.5 2.1 1.8 2.4 11.0 10.3 3.9 4.4 5.3 5.5 6.5 3.5 4.1 7.8 4.6 3.8 3.6 2.7 3.1 3.0 2.7 2.6 3.5 4.4 3.9 2.8 2.1 1.9 2.4 2.2 2.0 2.1 3.8
0.0 0.2 0.7 0.9 0.8 0.0 0.0 0.0 nan nan nan nan nan 5.6 10.5 nan nan nan nan nan nan nan 4.6 6.6 12.3 13.4 8.4 4.2 5.6 4.5 4.1 3.3 2.9 3.4 4.8 3.2 3.1 3.4 3.0 3.3 2.8 3.1 3.8
0.2 0.2 1.0 1.0 1.1 1.1 1.3 1.5 2.6 1.5 nan nan nan nan nan nan nan nan nan nan nan nan 7.0 7.2 14.8 17.0 10.4 3.9 4.2 4.0 5.7 5.3 2.5 3.9 4.8 5.7 5.7 4.2 4.5 4.1 4.9 4.1 4.4
0.4 0.3 1.4 1.2 1.3 1.8 3.0 3.2 3.4 4.8 8.0 6.4 nan nan nan nan nan nan nan nan 4.4 nan 4.0 7.0 10.3 11.2 5.6 3.7 3.8 4.8 5.4 7.2 7.3 5.8 7.6 10.8 12.1 8.0 6.8 4.6 3.9 6.0 4.3
0.5 1.1 2.7 4.0 4.0 3.8 4.5 4.7 4.3 5.0 5.2 4.7 3.9 1.7 2.8 nan nan nan nan 6.8 6.6 5.2 4.2 3.8 8.2 5.5 5.7 4.4 13.0 13.9 16.9 15.6 15.7 18.5 10.8 10.5 21.7 6.2 7.0 5.0 5.6 4.2 3.6
0.4 0.0 1.5 3.1 3.7 3.9 3.7 4.5 4.2 4.8 4.7 5.4 5.3 5.5 4.6 4.0 16.4 24.7 17.1 22.6 15.3 6.7 7.4 4.6 5.0 5.2 8.1 7.5 15.4 22.7 20.8 20.7 15.0 11.0 19.9 27.5 25.4 11.6 10.2 8.5 10.7 10.6 4.1
0.8 1.1 0.5 2.2 2.6 3.3 4.7 5.0 5.1 6.3 6.6 6.0 11.0 18.8 2.9 7.8 12.0 12.5 10.2 14.1 10.5 9.2 13.9 5.6 8.4 10.4 8.6 10.4 6.0 12.7 6.0 26.7 11.2 11.3 10.7 11.2 43.9 14.8 8.2 8.5 9.1 6.0 4.2
2.0 2.2 3.0 4.1 3.8 6.3 4.5 4.5 6.7 6.3 6.1 7.1 9.9 8.5 4.2 14.9 10.2 10.5 10.4 16.4 26.0 11.4 9.1 10.0 7.5 6.5 6.9 7.0 8.1 24.0 17.4 22.9 19.2 14.9 13.2 11.8 9.6 10.8 9.2 9.3 10.6 10.7 6.4
3.6 6.3 3.8 2.5 3.6 7.0 10.3 4.9 9.0 11.5 9.1 12.4 7.9 8.5 10.1 15.7 15.7 10.5 14.4 24.0 13.0 15.1 13.4 10.5 18.4 10.1 11.0 14.1 13.4 9.3 13.0 11.9 13.1 14.9 16.2 16.9 10.1 11.8 17.3 12.3 9.4 10.0 10.3
4.6 8.6 4.6 8.3 10.9 5.9 15.4 21.4 15.8 7.9 9.0 13.1 24.5 19.8 15.2 15.9 30.5 23.6 26.1 32.6 21.4 27.5 26.4 24.3 10.3 8.0 7.8 24.3 16.2 12.4 7.3 12.9 9.0 9.5 10.0 14.7 11.3 8.5 12.2 9.5 9.5 10.3 11.9
10.1 13.2 13.1 9.2 9.0 18.2 24.1 18.6 22.1 22.4 20.8 24.6 29.6 23.5 9.1 18.0 14.2 30.6 28.0 20.5 17.6 27.0 15.4 18.5 15.6 11.7 12.5 9.3 8.0 5.1 6.9 4.1 8.6 4.5 9.7 7.6 11.1 10.9 11.2 10.3 13.8 8.8 10.1
6.4 7.3 9.7 10.1 10.8 16.5 18.9 27.9 30.9 27.3 24.9 28.2 27.4 28.4 21.5 15.6 15.0 26.8 20.4 19.6 16.3 15.5 14.5 16.2 14.4 11.0 9.6 9.8 6.1 5.4 5.0 4.6 13.9 4.6 14.9 7.7 12.3 12.9 13.1 11.3 9.4 11.7 7.9
Water_Equivalent
0.00 0.00 0.00 0.00 0.00 0.00 0.00 0.00 0.00 0.00 0.00 0.00 0.00 0.00 0.00 0.00 0.00 0.00 0.00 0.00 0.00 0.00 0.00 0.00 0.00 0.00 0.00 0.00 0.00 0.00 0.00 0.00 0.01 0.00 0.00 0.00 0.00 0.00 0.00 0.00 0.00 0.00 0.00
0.00 0.00 0.00 0.00 0.00 0.00 0.00 0.00 0.00 0.00 0.00 0.00 0.00 0.00 0.00 0.00 0.00 0.00 0.00 0.00 0.00 0.00 0.00 0.00 0.00 0.00 0.00 0.00 0.00 0.00 0.00 0.00 0.00 0.00 0.00 0.00 0.00 0.00 0.00 0.00 0.00 0.00 0.00
0.00 0.00 0.00 0.00 0.00 0.00 0.00 0.00 0.00 0.00 0.00 0.00 0.00 0.00 0.00 0.00 0.00 0.00 0.00 0.00 0.00 0.00 0.00 0.00 0.00 0.00 0.00 0.00 0.00 0.00 0.00 0.00 0.00 0.00 0.00 0.00 0.00 0.00 0.00 0.00 0.00 0.00 0.00
0.00 0.00 0.00 0.00 0.00 0.00 0.00 0.00 0.00 0.00 0.00 0.00 0.00 0.00 0.00 0.00 0.00 0.00 0.00 0.00 0.00 0.00 0.00 0.00 0.00 0.00 0.00 0.00 0.00 0.00 0.00 0.00 0.00 0.00 0.00 0.00 0.00 0.00 0.00 0.00 0.00 0.00 0.00
0.00 0.00 0.00 0.00 0.00 0.00 0.00 0.00 0.00 0.00 0.00 0.00 0.00 0.00 0.00 0.00 0.00 0.00 0.00 0.00 0.00 0.00 0.00 0.00 0.00 nan nan nan 0.00 0.01 0.01 0.01 0.01 0.00 0.00 0.00 0.00 0.00 0.00 0.00 0.00 0.00 0.00
0.00 0.00 0.00 0.00 0.00 0.00 0.00 0.00 0.00 0.00 0.00 0.00 0.00 0.00 0.00 0.00 nan nan 0.00 0.00 0.00 0.00 0.00 0.00 0.00 0.00 0.00 nan nan nan nan 0.01 0.01 0.01 0.00 0.00 0.00 0.00 0.00 0.00 0.00 0.00 0.03
0.00 0.00 0.00 0.00 0.00 0.00 0.00 0.00 0.00 0.00 0.00 0.00 0.00 0.00 0.00 0.00 nan nan nan 0.00 0.00 0.00 0.00 0.00 0.00 0.00 nan 0.00 nan nan nan nan 0.01 0.02 0.02 0.00 0.00 0.00 0.00 0.00 0.00 0.01 0.01
0.00 0.00 0.00 0.00 0.00 0.00 0.00 0.00 0.00 0.03 0.01 0.00 0.00 0.00 0.00 0.00 nan nan nan 0.01 0.01 0.01 0.00 0.00 0.00 0.00 0.00 0.00 0.01 0.04 0.00 0.01 0.00 0.00 0.03 0.01 0.00 0.00 0.00 0.00 0.01 0.02 0.06
0.00 0.00 0.00 0.00 0.00 0.00 0.00 0.01 0.01 0.00 0.00 0.00 0.00 0.00 0.00 0.00 nan nan 0.03 0.05 0.04 0.02 0.00 0.00 0.00 0.00 nan nan 0.06 0.13 0.03 0.00 nan nan nan nan nan nan nan 0.16 0.37 0.39 0.76
0.00 0.00 0.00 0.00 0.00 0.00 0.00 0.00 0.00 0.00 0.00 0.00 0.00 0.00 nan 0.04 nan nan nan 0.33 0.42 0.28 0.05 0.02 nan 0.00 nan nan 0.21 0.19 0.21 0.01 0.00 0.00 0.00 0.00 nan nan nan 0.00 0.08 0.34 0.30
0.00 0.00 0.00 0.00 0.00 0.00 0.00 0.00 0.00 0.00 0.01 0.07 0.16 0.06 0.03 0.04 0.04 nan nan 0.41 0.43 0.37 0.24 0.20 0.15 nan nan nan nan 0.25 0.19 0.02 0.04 0.09 0.02 0.01 0.00 0.01 0.00 0.00 0.01 0.11 0.27
0.00 0.00 0.00 0.00 0.00 0.00 0.00 0.00 0.00 0.00 0.03 0.09 0.96 0.35 0.27 0.17 nan nan nan nan nan 0.78 0.28 0.24 0.34 nan nan nan 0.21 nan nan 0.11 0.78 0.66 0.50 0.33 0.30 0.25 0.04 0.06 0.06 0.09 0.06
0.00 0.00 0.00 0.00 0.00 0.00 0.00 0.00 0.00 0.00 0.16 0.22 0.27 0.53 0.26 0.29 0.23 nan nan nan nan 0.74 0.60 0.50 nan nan nan 0.44 nan nan 0.18 0.72 0.82 0.87 0.52 0.29 0.22 0.08 0.05 0.12 0.04 0.03 0.03
0.00 0.00 0.00 0.00 0.00 0.00 0.00 0.00 0.00 0.17 0.29 0.29 0.39 0.30 0.26 0.27 0.39 0.30 0.42 0.42 nan 0.44 0.23 0.48 0.30 0.45 0.30 0.35 0.45 0.48 0.57 0.68 0.66 0.63 0.41 0.23 0.21 0.31 0.36 0.26 0.42 0.37 0.48
0.00 0.00 0.00 0.03 0.00 0.00 0.00 0.00 0.14 0.07 0.26 0.35 0.30 0.37 1.30 1.22 0.53 0.63 0.75 0.74 0.85 0.51 0.69 1.12 0.65 0.49 0.49 0.41 0.49 0.48 0.43 0.43 0.55 0.69 0.63 0.45 0.36 0.31 0.41 0.41 0.35 0.34 0.59
0.00 0.03 0.13 0.16 0.15 0.00 0.00 0.00 nan nan nan nan nan 0.82 1.42 nan nan nan nan nan nan nan 0.60 0.81 1.47 1.62 0.97 0.52 0.73 0.64 0.59 0.53 0.44 0.53 0.77 0.52 0.51 0.58 0.49 0.56 0.48 0.50 0.55
0.04 0.04 0.19 0.20 0.20 0.21 0.24 0.26 0.37 0.27 nan nan nan nan nan nan nan nan nan nan nan nan 0.85 0.83 1.56 1.83 1.15 0.46 0.50 0.50 0.69 0.71 0.34 0.57 0.73 0.87 0.87 0.65 0.75 0.69 0.81 0.67 0.67
0.07 0.10 0.25 0.23 0.22 0.32 0.48 0.48 0.48 0.64 0.98 0.84 nan nan nan nan nan nan nan nan 0.53 nan 0.48 0.78 1.11 1.17 0.60 0.43 0.43 0.50 0.60 0.89 0.89 0.73 1.04 1.41 1.56 1.09 1.04 0.68 0.62 0.87 0.64
0.09 0.21 0.47 0.69 0.69 0.65 0.74 0.72 0.63 0.69 0.69 0.62 0.55 0.33 0.68 nan nan nan nan 0.81 0.72 0.58 0.47 0.43 0.93 0.61 0.61 0.48 1.38 1.49 1.83 1.69 1.73 2.18 1.33 1.31 2.91 0.86 0.97 0.74 0.79 0.75 0.67
0.07 0.01 0.29 0.53 0.64 0.68 0.62 0.68 0.58 0.66 0.62 0.71 0.64 0.65 0.53 0.55 1.81 2.72 1.86 2.60 1.67 0.74 0.83 0.51 0.57 0.60 0.88 0.77 1.66 2.54 2.31 2.31 1.65 1.23 2.25 3.34 3.11 1.40 1.17 1.00 1.26 1.25 0.55
0.14 0.21 0.17 0.39 0.45 0.56 0.74 0.75 0.67 0.81 0.84 0.77 1.31 2.17 0.97 0.79 1.24 1.29 1.04 1.46 1.06 0.92 1.44 0.63 0.96 1.21 1.05 1.25 0.69 1.39 0.64 3.03 1.21 1.22 1.17 1.24 5.41 1.59 0.94 1.00 1.12 0.80 0.56
0.35 0.38 0.53 0.70 0.64 1.00 0.72 0.67 0.90 0.81 0.78 0.90 1.19 1.12 1.38 1.59 1.05 1.07 1.06 1.75 2.89 1.18 0.93 1.10 0.80 0.71 0.77 0.81 0.93 2.78 1.88 2.54 2.11 1.60 1.40 1.25 1.06 1.23 1.01 1.04 1.18 1.21 0.82
0.63 1.08 0.64 0.42 0.59 2.09 1.45 0.74 1.11 1.43 1.18 1.57 0.99 1.02 1.15 1.68 1.64 1.06 1.50 2.63 1.36 1.60 1.41 1.10 1.98 1.05 1.22 1.53 1.55 1.08 1.38 1.25 1.39 1.61 1.74 1.82 1.08 1.25 1.89 1.33 1.06 1.12 1.12
0.81 1.45 0.76 1.36 1.70 0.91 1.97 2.63 1.83 2.38 1.21 1.71 2.99 2.34 1.84 1.87 3.50 2.70 2.87 3.71 2.32 3.07 2.94 2.68 1.07 0.81 0.80 2.69 1.75 1.38 0.84 1.44 1.11 1.08 1.25 1.57 1.21 1.26 1.44 1.11 1.13 1.10 1.25
1.69 2.18 2.15 1.47 1.43 2.63 3.30 2.45 2.60 3.00 2.75 3.25 3.60 2.86 1.17 2.28 1.72 3.97 3.18 2.30 1.87 3.00 1.62 1.97 1.64 1.22 1.31 0.95 0.82 0.52 0.90 1.34 1.34 1.48 1.12 0.90 1.23 1.17 1.16 1.10 1.46 1.08 1.08
1.10 1.25 1.60 1.61 1.70 2.50 2.58 3.50 3.55 3.17 2.98 3.55 3.59 3.71 2.78 1.96 1.89 3.43 2.38 2.12 1.72 1.63 1.57 1.71 1.53 1.14 0.99 1.02 0.62 1.61 1.66 1.51 1.62 1.52 1.73 0.97 1.36 1.40 1.37 1.20 1.01 1.25 0.86
SL_Ratio
nan nan nan nan nan nan nan nan nan nan nan nan nan nan nan nan nan nan nan nan nan nan nan nan nan nan nan nan nan nan nan nan 6.7 nan nan nan nan nan nan nan nan nan nan
nan nan nan nan nan nan nan nan nan nan nan nan nan nan nan nan nan nan nan nan nan nan nan nan nan nan nan nan nan nan nan nan nan nan nan nan nan nan nan nan nan nan nan
nan nan nan nan nan nan nan nan nan nan nan nan nan nan nan nan nan nan nan nan nan nan nan nan nan nan nan nan nan nan nan nan nan nan nan nan nan nan nan nan nan nan nan
nan nan nan nan nan nan nan nan nan nan nan nan nan nan nan nan nan nan nan nan nan nan nan nan nan nan nan nan nan 7.5 10.0 7.5 8.0 8.0 nan nan nan nan nan nan nan nan nan
nan nan nan nan nan nan nan nan nan nan nan nan nan nan nan nan nan nan nan nan nan nan nan nan nan nan nan nan 10.0 7.1 7.5 7.9 7.7 8.9 7.5 10.0 nan nan nan nan nan nan nan
nan nan nan nan nan nan nan nan nan nan nan nan nan nan nan nan nan nan nan nan nan nan 0.0 nan nan nan nan nan nan nan nan 7.6 8.1 8.2 8.3 8.6 nan nan nan nan nan nan 4.2
nan nan nan nan nan nan nan nan nan 5.0 5.0 6.0 nan nan nan nan nan nan nan nan nan 10.0 nan nan nan nan nan nan nan nan nan nan 3.2 7.1 7.1 8.2 10.0 nan nan nan 4.5 5.0 5.0
nan nan nan nan nan nan nan nan 3.8 3.1 3.2 nan nan nan nan nan nan nan nan 5.4 5.3 5.3 nan nan nan nan nan 7.5 7.6 7.8 8.0 7.5 nan 10.0 6.2 6.8 7.0 nan nan nan 6.5 6.5 5.2
nan nan nan nan nan nan nan 3.5 2.4 nan nan nan nan nan nan nan nan nan 5.8 5.7 5.6 5.6 nan nan 8.0 6.7 nan nan 6.5 6.5 6.5 nan nan nan nan nan nan nan nan 6.1 5.8 6.1 6.2
nan nan nan nan nan nan nan nan nan nan nan 10.0 0.0 nan nan 5.6 nan nan nan 5.5 6.9 5.9 5.5 5.4 nan 8.8 nan nan 6.8 6.8 7.1 6.2 nan 6.7 10.0 nan nan nan nan 0.0 5.3 6.0 5.8
nan nan nan nan nan nan nan nan nan nan 5.6 5.8 5.9 5.8 5.5 5.6 5.7 nan nan 6.2 6.2 6.4 5.9 5.7 5.5 nan nan nan nan 6.5 7.0 7.5 6.1 6.2 6.8 6.4 7.9 7.9 8.0 6.7 6.5 5.3 5.6
nan nan nan nan nan nan nan nan nan 5.0 5.7 6.0 6.1 5.8 5.6 5.9 nan nan nan nan nan 6.6 6.4 5.9 6.3 nan nan nan 4.8 nan nan 5.5 6.1 6.2 6.3 6.1 6.0 5.8 6.7 6.5 6.3 6.7 6.5
nan nan nan nan nan nan nan nan nan 5.0 5.7 6.3 5.8 6.2 5.9 5.7 5.7 nan nan nan nan 6.2 6.2 6.5 nan nan nan 3.0 nan nan 3.0 6.3 6.4 6.6 6.3 6.2 6.1 6.5 6.7 5.5 5.3 4.4 4.0
nan nan nan nan nan nan nan nan nan 5.6 6.0 5.9 6.3 6.4 6.3 6.1 6.2 6.2 6.3 6.2 nan 6.3 4.0 6.3 3.0 5.3 3.0 4.4 5.2 6.0 6.0 6.2 6.6 6.7 6.5 6.2 5.8 5.6 5.8 5.7 6.1 6.1 6.2
nan nan nan 5.2 7.5 nan nan nan 5.5 5.5 5.9 6.1 6.0 6.4 8.5 8.5 7.4 7.1 7.1 7.4 7.6 7.0 5.9 7.0 7.1 7.7 7.4 6.6 6.3 6.2 6.1 6.1 6.4 6.4 6.3 6.1 5.8 6.1 5.9 5.5 5.8 6.2 6.5
4.3 5.2 5.3 5.4 5.4 nan 10.0 nan nan nan nan nan nan 6.9 7.4 nan nan nan nan nan nan nan 7.6 8.1 8.3 8.2 8.6 8.0 7.7 7.1 7.0 6.2 6.6 6.4 6.2 6.1 6.1 5.9 6.1 5.9 5.9 6.3 6.8
5.6 5.7 5.5 5.2 5.4 5.5 5.6 5.8 6.9 5.6 nan nan nan nan nan nan nan nan nan nan nan nan 8.1 8.6 9.5 9.3 9.1 8.5 8.4 8.0 8.2 7.4 7.4 6.8 6.6 6.6 6.5 6.4 6.0 5.9 6.0 6.2 6.6
5.7 3.0 5.5 5.5 5.6 5.7 6.1 6.6 7.1 7.5 8.1 7.6 nan nan nan nan nan nan nan nan 8.4 nan 8.5 9.0 9.3 9.5 9.2 8.8 8.8 9.6 9.0 8.2 8.2 7.9 7.3 7.7 7.7 7.4 6.6 6.7 6.3 6.9 6.7
5.4 5.4 5.7 5.8 5.8 5.9 6.0 6.5 6.8 7.2 7.5 7.6 7.1 5.1 4.2 nan nan nan nan 8.4 9.1 8.9 8.9 8.9 8.8 9.1 9.4 9.2 9.4 9.3 9.2 9.2 9.1 8.5 8.1 8.0 7.5 7.3 7.2 6.8 7.1 5.7 5.4
5.4 4.2 5.0 5.7 5.8 5.7 5.9 6.6 7.2 7.4 7.5 7.7 8.3 8.5 8.7 7.3 9.1 9.1 9.2 8.7 9.2 9.0 8.9 9.0 8.7 8.6 9.2 9.8 9.3 9.0 9.0 9.0 9.1 8.9 8.9 8.2 8.2 8.3 8.7 8.5 8.5 8.5 7.4
5.5 5.4 3.0 5.6 5.8 6.0 6.3 6.7 7.7 7.8 7.9 7.8 8.4 8.7 3.0 9.8 9.7 9.7 9.8 9.7 9.9 9.9 9.6 8.9 8.7 8.6 8.1 8.3 8.6 9.2 9.3 8.8 9.2 9.3 9.2 9.1 8.1 9.3 8.7 8.5 8.1 7.5 7.6
5.7 5.8 5.6 5.8 5.9 6.3 6.3 6.7 7.5 7.9 7.7 7.9 8.3 7.7 3.0 9.4 9.8 9.8 9.8 9.4 9.0 9.7 9.8 9.0 9.4 9.3 9.0 8.6 8.7 8.6 9.2 9.0 9.1 9.3 9.5 9.4 9.1 8.8 9.1 8.9 9.0 8.9 7.7
5.6 5.9 5.9 5.9 6.1 3.3 7.1 6.7 8.2 8.0 7.8 7.9 7.9 8.3 8.8 9.4 9.6 9.9 9.6 9.1 9.6 9.5 9.5 9.6 9.3 9.6 9.0 9.2 8.6 8.6 9.4 9.5 9.4 9.2 9.3 9.3 9.4 9.4 9.2 9.2 8.9 8.9 9.2
5.7 5.9 6.1 6.1 6.4 6.5 7.8 8.1 8.6 3.3 7.5 7.6 8.2 8.5 8.3 8.5 8.7 8.7 9.1 8.8 9.2 9.0 9.0 9.1 9.7 9.8 9.7 9.0 9.3 9.0 8.7 9.0 8.1 8.8 8.0 9.4 9.3 6.8 8.4 8.6 8.4 9.4 9.5
6.0 6.0 6.1 6.3 6.3 6.9 7.3 7.6 8.5 7.5 7.6 7.6 8.2 8.2 7.8 7.9 8.3 7.7 8.8 8.9 9.4 9.0 9.5 9.4 9.5 9.6 9.6 9.7 9.7 9.8 7.6 3.0 6.4 3.0 8.6 8.4 9.0 9.3 9.6 9.3 9.5 8.2 9.4
5.8 5.8 6.0 6.3 6.4 6.6 7.3 8.0 8.7 8.6 8.4 7.9 7.6 7.7 7.7 8.0 7.9 7.8 8.6 9.2 9.5 9.5 9.2 9.4 9.4 9.6 9.7 9.7 9.8 3.4 3.0 3.0 8.6 3.0 8.6 7.9 9.0 9.2 9.5 9.4 9.3 9.3 9.2